• Em Portugal
  • Lista de países
  • Para 7 dias
  • Temperatura da água
  • Mapas de satélite
  • Mapa do tempo
  • Widgets de tempo
  • user-avatar
    Iniciar Sessão

    Previsão horária em Berezovec

    Hoje, 28 Maio, Segunda-feira

    Tempo Temperatura Precipitação Vento Pressão Humidade
    00:00 +12°C° 0 mm 2 m/s 748 mmHg 75%
    01:00 +12°C° 0 mm 2 m/s 748 mmHg 77%
    02:00 +10°C° 0 mm 2 m/s 748 mmHg 79%
    03:00 +12°C° 0 mm 2 m/s 748 mmHg 81%
    04:00 +12°C° 0 mm 2 m/s 748 mmHg 82%
    05:00 +13°C° 0 mm 2 m/s 748 mmHg 84%
    06:00 +14°C° 0 mm 3 m/s 748 mmHg 80%
    07:00 +17°C° 0 mm 3 m/s 748 mmHg 76%
    08:00 +19°C° 0 mm 3 m/s 748 mmHg 72%
    09:00 +20°C° 0,1 mm 3 m/s 749 mmHg 70%
    10:00 +21°C° 0,1 mm 4 m/s 749 mmHg 67%
    11:00 +22°C° 0,1 mm 4 m/s 749 mmHg 65%
    12:00 +22°C° 0,1 mm 4 m/s 749 mmHg 62%
    13:00 +22°C° 0,1 mm 5 m/s 749 mmHg 60%
    14:00 +22°C° 0,1 mm 5 m/s 749 mmHg 58%
    15:00 +21°C° 0 mm 5 m/s 749 mmHg 60%
    16:00 +21°C° 0 mm 4 m/s 749 mmHg 62%
    17:00 +20°C° 0 mm 4 m/s 749 mmHg 64%
    18:00 +18°C° 0 mm 4 m/s 750 mmHg 68%
    19:00 +15°C° 0 mm 4 m/s 750 mmHg 72%
    20:00 +13°C° 0 mm 3 m/s 750 mmHg 76%
    21:00 +12°C° 0 mm 3 m/s 751 mmHg 75%
    22:00 +11°C° 0 mm 3 m/s 751 mmHg 74%
    23:00 +10°C° 0 mm 3 m/s 752 mmHg 73%

    Amanhã, 29 Maio, Terça-feira

    Tempo Temperatura Precipitação Vento Pressão Humidade
    00:00 +9°C° 0 mm 3 m/s 752 mmHg 73%
    01:00 +9°C° 0 mm 3 m/s 752 mmHg 73%
    02:00 +8°C° 0 mm 3 m/s 753 mmHg 73%
    03:00 +8°C° 0 mm 2 m/s 753 mmHg 74%
    04:00 +8°C° 0 mm 2 m/s 753 mmHg 76%
    05:00 +9°C° 0 mm 2 m/s 753 mmHg 77%
    06:00 +10°C° 0 mm 2 m/s 753 mmHg 71%
    07:00 +13°C° 0 mm 2 m/s 753 mmHg 64%
    08:00 +15°C° 0 mm 2 m/s 753 mmHg 57%
    09:00 +16°C° 0 mm 2 m/s 753 mmHg 54%
    10:00 +18°C° 0 mm 1 m/s 752 mmHg 50%
    11:00 +19°C° 0 mm 1 m/s 752 mmHg 47%
    12:00 +20°C° 0 mm 1 m/s 752 mmHg 46%
    13:00 +20°C° 0 mm 1 m/s 751 mmHg 46%
    14:00 +21°C° 0 mm 1 m/s 751 mmHg 45%
    15:00 +21°C° 0 mm 1 m/s 750 mmHg 47%
    16:00 +21°C° 0 mm 1 m/s 750 mmHg 49%
    17:00 +21°C° 0 mm 1 m/s 749 mmHg 51%
    18:00 +19°C° 0 mm 1 m/s 749 mmHg 56%
    19:00 +16°C° 0 mm 1 m/s 748 mmHg 62%
    20:00 +14°C° 0 mm 1 m/s 748 mmHg 67%
    21:00 +13°C° 0 mm 2 m/s 748 mmHg 69%
    22:00 +13°C° 0 mm 2 m/s 748 mmHg 72%
    23:00 +12°C° 0 mm 2 m/s 748 mmHg 74%

    Depois de amanhã, 30 Maio, Quarta-feira

    Tempo Temperatura Precipitação Vento Pressão Humidade
    00:00 +12°C° 0 mm 2 m/s 748 mmHg 76%
    01:00 +10°C° 0 mm 3 m/s 747 mmHg 79%
    02:00 +10°C° 0 mm 3 m/s 747 mmHg 81%
    03:00 +10°C° 0 mm 3 m/s 747 mmHg 82%
    04:00 +11°C° 0 mm 3 m/s 746 mmHg 82%
    05:00 +11°C° 0 mm 3 m/s 746 mmHg 83%
    06:00 +13°C° 0 mm 4 m/s 746 mmHg 79%
    07:00 +15°C° 0 mm 4 m/s 745 mmHg 75%
    08:00 +18°C° 0 mm 4 m/s 745 mmHg 71%
    09:00 +19°C° 0 mm 5 m/s 744 mmHg 68%
    10:00 +20°C° 0 mm 5 m/s 744 mmHg 66%
    11:00 +22°C° 0 mm 5 m/s 744 mmHg 63%
    12:00 +22°C° 0 mm 5 m/s 743 mmHg 63%
    13:00 +23°C° 0 mm 6 m/s 743 mmHg 63%
    14:00 +23°C° 0 mm 6 m/s 742 mmHg 63%
    15:00 +23°C° 0 mm 6 m/s 742 mmHg 66%
    16:00 +22°C° 0 mm 5 m/s 741 mmHg 70%
    17:00 +22°C° 0 mm 5 m/s 741 mmHg 73%
    18:00 +21°C° 0 mm 5 m/s 740 mmHg 78%
    19:00 +19°C° 0 mm 4 m/s 740 mmHg 83%
    20:00 +18°C° 0 mm 4 m/s 740 mmHg 89%
    21:00 +17°C° 0 mm 4 m/s 739 mmHg 90%
    22:00 +17°C° 0 mm 4 m/s 739 mmHg 91%
    23:00 +15°C° 0 mm 4 m/s 738 mmHg 93%

    31 Maio, Quinta-feira

    Tempo Temperatura Precipitação Vento Pressão Humidade
    00:00 +15°C° 0 mm 4 m/s 738 mmHg 93%
    01:00 +15°C° 0 mm 4 m/s 738 mmHg 93%
    02:00 +15°C° 0 mm 4 m/s 737 mmHg 93%
    03:00 +15°C° 0 mm 4 m/s 737 mmHg 93%
    04:00 +15°C° 0 mm 4 m/s 737 mmHg 92%
    05:00 +15°C° 0 mm 4 m/s 736 mmHg 91%
    06:00 +17°C° 0,5 mm 4 m/s 736 mmHg 89%
    07:00 +19°C° 0,5 mm 4 m/s 736 mmHg 86%
    08:00 +20°C° 0,5 mm 4 m/s 736 mmHg 83%
    09:00 +20°C° 0,9 mm 4 m/s 736 mmHg 79%
    10:00 +21°C° 0,9 mm 4 m/s 736 mmHg 74%
    11:00 +22°C° 0,9 mm 4 m/s 736 mmHg 70%
    12:00 +21°C° 0,3 mm 5 m/s 736 mmHg 70%
    13:00 +20°C° 0,3 mm 5 m/s 737 mmHg 71%
    14:00 +20°C° 0,3 mm 5 m/s 737 mmHg 72%
    15:00 +19°C° 0 mm 5 m/s 737 mmHg 72%
    16:00 +19°C° 0 mm 5 m/s 737 mmHg 71%
    17:00 +17°C° 0 mm 5 m/s 737 mmHg 71%
    18:00 +16°C° 0 mm 5 m/s 737 mmHg 71%
    19:00 +15°C° 0 mm 5 m/s 738 mmHg 71%
    20:00 +14°C° 0 mm 5 m/s 738 mmHg 71%
    21:00 +14°C° 0 mm 5 m/s 739 mmHg 66%
    22:00 +13°C° 0 mm 6 m/s 739 mmHg 61%
    23:00 +13°C° 0 mm 6 m/s 739 mmHg 56%

    1 Junho, Sexta-feira

    Tempo Temperatura Precipitação Vento Pressão Humidade
    00:00 +11°C° 0 mm 6 m/s 739 mmHg 57%
    01:00 +10°C° 0 mm 6 m/s 740 mmHg 58%
    02:00 +10°C° 0 mm 6 m/s 740 mmHg 59%
    03:00 +9°C° 0 mm 6 m/s 740 mmHg 63%
    04:00 +8°C° 0 mm 6 m/s 740 mmHg 67%
    05:00 +8°C° 0 mm 5 m/s 740 mmHg 72%
    06:00 +9°C° 0 mm 6 m/s 741 mmHg 69%
    07:00 +10°C° 0 mm 6 m/s 741 mmHg 67%
    08:00 +11°C° 0 mm 7 m/s 742 mmHg 64%
    09:00 +11°C° 0 mm 7 m/s 742 mmHg 62%
    10:00 +12°C° 0 mm 7 m/s 742 mmHg 59%
    11:00 +12°C° 0 mm 7 m/s 742 mmHg 56%
    12:00 +12°C° 0 mm 7 m/s 742 mmHg 56%
    13:00 +14°C° 0 mm 7 m/s 742 mmHg 56%
    14:00 +14°C° 0 mm 7 m/s 742 mmHg 56%
    15:00 +13°C° 0 mm 6 m/s 742 mmHg 59%
    16:00 +13°C° 0 mm 6 m/s 742 mmHg 62%
    17:00 +12°C° 0 mm 5 m/s 742 mmHg 65%
    18:00 +12°C° 0 mm 5 m/s 743 mmHg 63%
    19:00 +10°C° 0 mm 5 m/s 743 mmHg 62%
    20:00 +10°C° 0 mm 5 m/s 743 mmHg 61%
    21:00 +9°C° 0 mm 5 m/s 744 mmHg 61%
    22:00 +9°C° 0 mm 5 m/s 744 mmHg 61%
    23:00 +8°C° 0 mm 5 m/s 744 mmHg 62%

    2 Junho, Sábado

    Tempo Temperatura Precipitação Vento Pressão Humidade
    00:00 +8°C° 0 mm 5 m/s 744 mmHg 64%
    01:00 +7°C° 0 mm 5 m/s 744 mmHg 66%
    02:00 +5°C° 0 mm 6 m/s 744 mmHg 68%
    03:00 +5°C° 0 mm 6 m/s 744 mmHg 69%
    04:00 +5°C° 0 mm 6 m/s 745 mmHg 70%
    05:00 +5°C° 0 mm 6 m/s 745 mmHg 72%
    06:00 +8°C° 0 mm 6 m/s 745 mmHg 68%
    07:00 +9°C° 0 mm 7 m/s 745 mmHg 64%
    08:00 +10°C° 0 mm 8 m/s 745 mmHg 60%
    09:00 +11°C° 0 mm 7 m/s 745 mmHg 59%
    10:00 +12°C° 0 mm 7 m/s 746 mmHg 58%
    11:00 +14°C° 0 mm 7 m/s 746 mmHg 57%
    12:00 +14°C° 0 mm 7 m/s 745 mmHg 58%
    13:00 +14°C° 0 mm 6 m/s 745 mmHg 60%
    14:00 +14°C° 0 mm 6 m/s 745 mmHg 61%
    15:00 +14°C° 0 mm 6 m/s 745 mmHg 63%
    16:00 +14°C° 0 mm 5 m/s 745 mmHg 65%
    17:00 +14°C° 0 mm 5 m/s 745 mmHg 66%
    18:00 +13°C° 0 mm 4 m/s 745 mmHg 70%
    19:00 +11°C° 0 mm 4 m/s 745 mmHg 75%
    20:00 +10°C° 0 mm 3 m/s 745 mmHg 79%
    21:00 +9°C° 0 mm 3 m/s 745 mmHg 80%
    22:00 +8°C° 0 mm 3 m/s 746 mmHg 82%
    23:00 +8°C° 0 mm 3 m/s 746 mmHg 83%
    Mostrar mais